Time,TemperatureF,DewpointF,PressureIn,WindDirection,WindDirectionDegrees,WindSpeedMPH,WindSpeedGustMPH,Humidity,HourlyPrecipIn,Conditions,Clouds,dailyrainin,SoftwareType,DateUTC
2013-02-21 00:00:00,14.0,6.7,30.24,North,0,2.5,4.7,72,0.00,,,0.00,WUHU216HW,2013-02-21 06:00:00,
2013-02-21 00:05:00,14.0,6.7,30.24,NNE,23,4.7,4.9,72,0.00,,,0.00,WUHU216HW,2013-02-21 06:05:00,
2013-02-21 00:10:00,14.2,6.8,30.24,NNE,23,2.7,6.3,72,0.00,,,0.00,WUHU216HW,2013-02-21 06:10:00,
2013-02-21 00:15:00,14.2,6.8,30.24,NNE,23,0.7,6.3,72,0.00,,,0.00,WUHU216HW,2013-02-21 06:15:00,
2013-02-21 00:20:00,14.4,6.8,30.24,NNE,23,2.0,6.5,71,0.00,,,0.00,WUHU216HW,2013-02-21 06:20:00,
2013-02-21 00:25:00,14.4,6.8,30.24,NNE,23,2.0,6.5,71,0.00,,,0.00,WUHU216HW,2013-02-21 06:25:00,
2013-02-21 00:30:00,14.4,6.8,30.25,NNE,23,3.4,4.9,71,0.00,,,0.00,WUHU216HW,2013-02-21 06:30:00,
2013-02-21 00:35:00,14.2,6.6,30.25,North,0,1.1,4.9,71,0.00,,,0.00,WUHU216HW,2013-02-21 06:35:00,
2013-02-21 00:40:00,14.0,6.7,30.25,NNE,23,3.4,4.0,72,0.00,,,0.00,WUHU216HW,2013-02-21 06:40:00,
2013-02-21 00:45:00,14.2,6.8,30.25,NNE,23,2.9,5.1,72,0.00,,,0.00,WUHU216HW,2013-02-21 06:45:00,
2013-02-21 00:50:00,14.0,6.7,30.25,NNE,23,2.7,5.1,72,0.00,,,0.00,WUHU216HW,2013-02-21 06:50:00,
2013-02-21 00:55:00,14.0,6.7,30.25,NNE,23,3.6,4.7,72,0.00,,,0.00,WUHU216HW,2013-02-21 06:55:00,
2013-02-21 01:00:00,14.0,6.7,30.25,NNE,23,3.6,5.1,72,0.00,,,0.00,WUHU216HW,2013-02-21 07:00:00,
2013-02-21 01:05:00,14.0,6.7,30.25,NNE,23,4.7,5.6,72,0.00,,,0.00,WUHU216HW,2013-02-21 07:05:00,
2013-02-21 01:10:00,14.0,6.7,30.25,North,0,4.3,5.6,72,0.00,,,0.00,WUHU216HW,2013-02-21 07:10:00,
2013-02-21 01:15:00,14.0,6.7,30.24,NNE,23,6.7,6.9,72,0.00,,,0.00,WUHU216HW,2013-02-21 07:15:00,
2013-02-21 01:20:00,13.9,6.5,30.25,NE,45,3.8,6.9,72,0.00,,,0.00,WUHU216HW,2013-02-21 07:20:00,
2013-02-21 01:25:00,13.9,6.9,30.25,North,0,6.0,7.2,73,0.00,,,0.00,WUHU216HW,2013-02-21 07:25:00,
2013-02-21 01:30:00,13.7,6.7,30.24,North,0,6.7,7.2,73,0.00,,,0.00,WUHU216HW,2013-02-21 07:30:00,
2013-02-21 01:35:00,13.7,6.7,30.24,NNE,23,6.9,8.5,73,0.00,,,0.00,WUHU216HW,2013-02-21 07:35:00,
2013-02-21 01:40:00,13.7,6.7,30.24,NNE,23,4.7,8.7,73,0.00,,,0.00,WUHU216HW,2013-02-21 07:40:00,
2013-02-21 01:45:00,13.5,6.8,30.25,NNE,23,3.4,8.7,74,0.00,,,0.00,WUHU216HW,2013-02-21 07:45:00,
2013-02-21 01:50:00,13.3,6.6,30.25,NNE,23,3.1,6.5,74,0.00,,,0.00,WUHU216HW,2013-02-21 07:50:00,
2013-02-21 01:55:00,13.3,6.6,30.25,NNE,23,4.3,8.5,74,0.00,,,0.00,WUHU216HW,2013-02-21 07:55:00,
2013-02-21 02:00:00,13.1,6.4,30.25,NNE,23,4.0,8.5,74,0.00,,,0.00,WUHU216HW,2013-02-21 08:00:00,
2013-02-21 02:05:00,13.0,6.2,30.25,NNE,23,4.7,5.4,74,0.00,,,0.00,WUHU216HW,2013-02-21 08:05:00,
2013-02-21 02:10:00,13.0,6.5,30.25,NNE,23,4.0,5.4,75,0.00,,,0.00,WUHU216HW,2013-02-21 08:10:00,
2013-02-21 02:15:00,12.8,6.3,30.25,NNE,23,4.0,5.6,75,0.00,,,0.00,WUHU216HW,2013-02-21 08:15:00,
2013-02-21 02:20:00,12.6,5.9,30.25,North,0,4.9,6.9,74,0.00,,,0.00,WUHU216HW,2013-02-21 08:20:00,
2013-02-21 02:25:00,12.6,6.1,30.25,NNE,23,4.5,6.9,75,0.00,,,0.00,WUHU216HW,2013-02-21 08:25:00,
2013-02-21 02:30:00,12.4,5.9,30.25,NE,45,3.8,6.5,75,0.00,,,0.00,WUHU216HW,2013-02-21 08:30:00,
2013-02-21 02:35:00,12.2,5.8,30.24,NE,45,5.6,5.8,75,0.00,,,0.00,WUHU216HW,2013-02-21 08:35:00,
2013-02-21 02:40:00,12.1,5.9,30.24,NNE,23,4.0,5.6,76,0.00,,,0.00,WUHU216HW,2013-02-21 08:40:00,
2013-02-21 02:45:00,11.9,5.9,30.24,NE,45,4.5,6.3,77,0.00,,,0.00,WUHU216HW,2013-02-21 08:45:00,
2013-02-21 02:50:00,11.9,5.9,30.25,NE,45,4.7,6.3,77,0.00,,,0.00,WUHU216HW,2013-02-21 08:50:00,
2013-02-21 02:55:00,11.9,5.9,30.25,NE,45,3.6,6.9,77,0.00,,,0.00,WUHU216HW,2013-02-21 08:55:00,
2013-02-21 03:00:00,11.7,5.8,30.25,ENE,68,4.0,6.9,77,0.00,,,0.00,WUHU216HW,2013-02-21 09:00:00,
2013-02-21 03:05:00,11.5,5.6,30.25,NE,45,5.6,6.3,77,0.00,,,0.00,WUHU216HW,2013-02-21 09:05:00,
2013-02-21 03:10:00,11.5,5.6,30.25,NNE,23,5.6,5.8,77,0.00,,,0.00,WUHU216HW,2013-02-21 09:10:00,
2013-02-21 03:15:00,11.5,5.6,30.25,NNE,23,4.9,6.9,77,0.00,,,0.00,WUHU216HW,2013-02-21 09:15:00,
2013-02-21 03:20:00,11.5,6.0,30.25,NE,45,4.7,6.9,78,0.00,,,0.00,WUHU216HW,2013-02-21 09:20:00,
2013-02-21 03:25:00,11.3,5.8,30.25,NE,45,4.7,6.5,78,0.00,,,0.00,WUHU216HW,2013-02-21 09:25:00,
2013-02-21 03:30:00,11.3,5.8,30.26,NE,45,3.8,6.3,78,0.00,,,0.00,WUHU216HW,2013-02-21 09:30:00,
2013-02-21 03:35:00,11.3,5.8,30.26,NNE,23,4.5,4.9,78,0.00,,,0.00,WUHU216HW,2013-02-21 09:35:00,
2013-02-21 03:40:00,11.3,5.8,30.26,NNE,23,4.0,5.1,78,0.00,,,0.00,WUHU216HW,2013-02-21 09:40:00,
2013-02-21 03:45:00,11.3,5.8,30.26,NNE,23,2.2,5.1,78,0.00,,,0.00,WUHU216HW,2013-02-21 09:45:00,
2013-02-21 03:50:00,11.3,5.8,30.27,NNE,23,2.5,4.9,78,0.00,,,0.00,WUHU216HW,2013-02-21 09:50:00,
2013-02-21 03:55:00,11.2,5.6,30.27,NNE,23,2.5,4.0,78,0.00,,,0.00,WUHU216HW,2013-02-21 09:55:00,
2013-02-21 04:00:00,11.2,5.9,30.27,NNE,23,2.9,4.5,79,0.00,,,0.00,WUHU216HW,2013-02-21 10:00:00,
2013-02-21 04:05:00,11.2,5.9,30.27,NNE,23,1.3,4.5,79,0.00,,,0.00,WUHU216HW,2013-02-21 10:05:00,
2013-02-21 04:10:00,11.2,5.9,30.27,NNE,23,4.0,4.0,79,0.00,,,0.00,WUHU216HW,2013-02-21 10:10:00,
2013-02-21 04:15:00,11.3,6.0,30.27,NNE,23,3.4,4.5,79,0.00,,,0.00,WUHU216HW,2013-02-21 10:15:00,
2013-02-21 04:20:00,11.2,5.9,30.27,North,0,3.8,4.5,79,0.00,,,0.00,WUHU216HW,2013-02-21 10:20:00,
2013-02-21 04:25:00,11.2,5.9,30.27,North,0,2.5,4.7,79,0.00,,,0.00,WUHU216HW,2013-02-21 10:25:00,
2013-02-21 04:30:00,11.2,5.9,30.27,NNE,23,4.9,5.8,79,0.00,,,0.00,WUHU216HW,2013-02-21 10:30:00,
2013-02-21 04:35:00,11.2,5.9,30.27,NNE,23,3.8,5.8,79,0.00,,,0.00,WUHU216HW,2013-02-21 10:35:00,
2013-02-21 04:40:00,11.2,5.9,30.27,NE,45,3.1,5.4,79,0.00,,,0.00,WUHU216HW,2013-02-21 10:40:00,
2013-02-21 04:45:00,11.2,5.9,30.28,NNE,23,3.6,4.7,79,0.00,,,0.00,WUHU216HW,2013-02-21 10:45:00,
2013-02-21 04:50:00,11.2,5.9,30.28,NNE,23,5.4,5.4,79,0.00,,,0.00,WUHU216HW,2013-02-21 10:50:00,
2013-02-21 04:55:00,11.2,5.9,30.28,NNW,338,3.8,5.4,79,0.00,,,0.00,WUHU216HW,2013-02-21 10:55:00,
2013-02-21 05:00:00,11.2,5.9,30.28,North,0,4.0,5.4,79,0.00,,,0.00,WUHU216HW,2013-02-21 11:00:00,
2013-02-21 05:04:00,11.0,5.7,30.28,ENE,68,3.6,4.5,79,0.00,,,0.00,WUHU216HW,2013-02-21 11:04:00,
2013-02-21 05:09:00,10.8,5.5,30.27,NNE,23,4.0,4.9,79,0.00,,,0.00,WUHU216HW,2013-02-21 11:09:00,
2013-02-21 05:14:00,10.8,5.5,30.27,NNE,23,6.5,6.5,79,0.00,,,0.00,WUHU216HW,2013-02-21 11:14:00,
2013-02-21 05:19:00,10.6,5.3,30.27,NNE,23,4.7,6.5,79,0.00,,,0.00,WUHU216HW,2013-02-21 11:19:00,
2013-02-21 05:24:00,10.4,5.1,30.27,NNE,23,8.1,8.1,79,0.00,,,0.00,WUHU216HW,2013-02-21 11:24:00,
2013-02-21 05:29:00,10.4,5.1,30.26,NE,45,9.2,9.6,79,0.00,,,0.00,WUHU216HW,2013-02-21 11:29:00,
2013-02-21 05:34:00,10.4,5.1,30.26,NE,45,8.7,9.6,79,0.00,,,0.00,WUHU216HW,2013-02-21 11:34:00,
2013-02-21 05:39:00,10.3,5.0,30.25,NE,45,6.9,9.8,79,0.00,,,0.00,WUHU216HW,2013-02-21 11:39:00,
2013-02-21 05:44:00,10.1,4.5,30.24,NNE,23,8.1,9.8,78,0.00,,,0.00,WUHU216HW,2013-02-21 11:44:00,
2013-02-21 05:49:00,9.9,4.3,30.23,NE,45,7.2,12.1,78,0.00,,,0.00,WUHU216HW,2013-02-21 11:49:00,
2013-02-21 05:54:00,9.7,4.1,30.22,NNE,23,7.8,12.1,78,0.00,,,0.00,WUHU216HW,2013-02-21 11:54:00,
2013-02-21 05:59:00,9.7,4.1,30.21,NNE,23,6.0,10.1,78,0.00,,,0.00,WUHU216HW,2013-02-21 11:59:00,
2013-02-21 06:04:00,9.5,4.1,30.20,NNE,23,7.6,11.2,78,0.00,,,0.00,WUHU216HW,2013-02-21 12:04:00,
2013-02-21 06:09:00,9.5,4.1,30.19,NE,45,6.9,11.2,78,0.00,,,0.00,WUHU216HW,2013-02-21 12:09:00,
2013-02-21 06:14:00,9.4,3.9,30.20,NE,45,9.8,9.8,78,0.00,,,0.00,WUHU216HW,2013-02-21 12:14:00,
2013-02-21 06:19:00,9.4,3.9,30.21,NE,45,7.6,13.2,78,0.00,,,0.00,WUHU216HW,2013-02-21 12:19:00,
2013-02-21 06:24:00,9.4,3.9,30.22,NE,45,4.0,13.2,78,0.00,,,0.00,WUHU216HW,2013-02-21 12:24:00,
2013-02-21 06:29:00,9.4,3.9,30.25,SE,135,5.4,10.1,78,0.00,,,0.00,WUHU216HW,2013-02-21 12:29:00,
2013-02-21 06:34:00,9.4,4.1,30.27,East,90,5.1,7.8,79,0.00,,,0.00,WUHU216HW,2013-02-21 12:34:00,
2013-02-21 06:39:00,9.5,4.3,30.28,NE,45,2.5,7.8,79,0.00,,,0.00,WUHU216HW,2013-02-21 12:39:00,
2013-02-21 06:44:00,9.7,4.5,30.27,NNE,23,2.9,6.0,79,0.00,,,0.00,WUHU216HW,2013-02-21 12:44:00,
2013-02-21 06:49:00,9.7,4.5,30.26,NE,45,3.8,6.0,79,0.00,,,0.00,WUHU216HW,2013-02-21 12:49:00,
2013-02-21 06:54:00,9.7,4.5,30.26,NNE,23,4.0,5.6,79,0.00,,,0.00,WUHU216HW,2013-02-21 12:54:00,
2013-02-21 06:59:00,10.1,4.8,30.26,NNE,23,4.5,4.9,79,0.00,,,0.00,WUHU216HW,2013-02-21 12:59:00,
2013-02-21 07:04:00,10.1,4.8,30.26,NNE,23,4.5,5.1,79,0.00,,,0.00,WUHU216HW,2013-02-21 13:04:00,
2013-02-21 07:09:00,10.3,5.0,30.25,NNE,23,4.7,5.8,79,0.00,,,0.00,WUHU216HW,2013-02-21 13:09:00,
2013-02-21 07:14:00,10.4,5.4,30.27,North,0,3.4,6.0,80,0.00,,,0.00,WUHU216HW,2013-02-21 13:14:00,
2013-02-21 07:19:00,10.6,5.6,30.27,NE,45,2.9,6.0,80,0.00,,,0.00,WUHU216HW,2013-02-21 13:19:00,
2013-02-21 07:24:00,11.0,5.9,30.28,East,90,3.1,5.4,80,0.00,,,0.00,WUHU216HW,2013-02-21 13:24:00,
2013-02-21 07:29:00,11.2,6.1,30.29,East,90,0.0,5.1,80,0.00,,,0.00,WUHU216HW,2013-02-21 13:29:00,
2013-02-21 07:34:00,11.5,6.5,30.28,NNE,23,4.9,5.1,80,0.00,,,0.00,WUHU216HW,2013-02-21 13:34:00,
2013-02-21 07:39:00,11.7,6.4,30.27,North,0,6.5,6.7,79,0.00,,,0.00,WUHU216HW,2013-02-21 13:39:00,
2013-02-21 07:44:00,11.9,6.6,30.27,NNE,23,7.4,8.9,79,0.00,,,0.00,WUHU216HW,2013-02-21 13:44:00,
2013-02-21 07:49:00,12.1,7.0,30.26,NNE,23,8.7,8.9,80,0.00,,,0.00,WUHU216HW,2013-02-21 13:49:00,
2013-02-21 07:54:00,12.1,7.0,30.25,NNE,23,6.7,9.2,80,0.00,,,0.00,WUHU216HW,2013-02-21 13:54:00,
2013-02-21 07:59:00,12.2,7.2,30.27,NE,45,7.8,9.2,80,0.00,,,0.00,WUHU216HW,2013-02-21 13:59:00,
2013-02-21 08:04:00,12.6,7.6,30.28,NE,45,6.5,8.7,80,0.00,,,0.00,WUHU216HW,2013-02-21 14:04:00,
2013-02-21 08:09:00,13.0,7.9,30.28,NE,45,4.7,8.7,80,0.00,,,0.00,WUHU216HW,2013-02-21 14:09:00,
2013-02-21 08:14:00,13.3,8.3,30.28,ENE,68,3.4,8.5,80,0.00,,,0.00,WUHU216HW,2013-02-21 14:14:00,
2013-02-21 08:19:00,13.3,8.0,30.28,ENE,68,7.8,8.1,79,0.00,,,0.00,WUHU216HW,2013-02-21 14:19:00,
2013-02-21 08:24:00,13.7,8.4,30.29,ENE,68,5.1,8.9,79,0.00,,,0.00,WUHU216HW,2013-02-21 14:24:00,
2013-02-21 08:29:00,13.7,8.4,30.29,NNE,23,3.4,8.9,79,0.00,,,0.00,WUHU216HW,2013-02-21 14:29:00,
2013-02-21 08:34:00,14.0,8.5,30.29,ENE,68,6.0,8.5,78,0.00,,,0.00,WUHU216HW,2013-02-21 14:34:00,
2013-02-21 08:39:00,13.9,8.6,30.28,NE,45,5.8,10.3,79,0.00,,,0.00,WUHU216HW,2013-02-21 14:39:00,
2013-02-21 08:44:00,13.9,8.6,30.28,NNE,23,8.3,10.3,79,0.00,,,0.00,WUHU216HW,2013-02-21 14:44:00,
2013-02-21 08:49:00,14.0,8.5,30.27,NE,45,11.0,11.0,78,0.00,,,0.00,WUHU216HW,2013-02-21 14:49:00,
2013-02-21 08:54:00,14.0,8.7,30.27,NNE,23,6.3,11.4,79,0.00,,,0.00,WUHU216HW,2013-02-21 14:54:00,
2013-02-21 08:59:00,14.2,8.9,30.27,NE,45,12.5,12.5,79,0.00,,,0.00,WUHU216HW,2013-02-21 14:59:00,
2013-02-21 09:04:00,14.4,9.1,30.27,NE,45,9.2,12.5,79,0.00,,,0.00,WUHU216HW,2013-02-21 15:04:00,
2013-02-21 09:09:00,14.6,9.3,30.27,ENE,68,8.5,12.5,79,0.00,,,0.00,WUHU216HW,2013-02-21 15:09:00,
2013-02-21 09:14:00,14.6,9.3,30.27,NNE,23,10.5,12.5,79,0.00,,,0.00,WUHU216HW,2013-02-21 15:14:00,
2013-02-21 09:19:00,14.8,9.7,30.26,ENE,68,8.7,12.1,80,0.00,,,0.00,WUHU216HW,2013-02-21 15:19:00,
2013-02-21 09:24:00,15.1,10.4,30.26,NNE,23,9.6,10.5,81,0.00,,,0.00,WUHU216HW,2013-02-21 15:24:00,
2013-02-21 09:29:00,15.5,10.7,30.27,ENE,68,9.8,10.5,81,0.00,,,0.00,WUHU216HW,2013-02-21 15:29:00,
2013-02-21 09:34:00,16.0,10.6,30.27,NE,45,6.7,9.8,79,0.00,,,0.00,WUHU216HW,2013-02-21 15:34:00,
2013-02-21 09:39:00,15.7,10.4,30.27,NNE,23,7.6,10.1,79,0.00,,,0.00,WUHU216HW,2013-02-21 15:39:00,
2013-02-21 09:44:00,15.5,10.2,30.26,NNE,23,6.9,11.9,79,0.00,,,0.00,WUHU216HW,2013-02-21 15:44:00,
2013-02-21 09:49:00,15.5,10.2,30.27,NNE,23,6.5,11.9,79,0.00,,,0.00,WUHU216HW,2013-02-21 15:49:00,
2013-02-21 09:54:00,16.0,10.6,30.27,ENE,68,7.2,11.9,79,0.00,,,0.00,WUHU216HW,2013-02-21 15:54:00,
2013-02-21 09:59:00,16.6,11.2,30.26,NNE,23,7.6,11.9,79,0.00,,,0.00,WUHU216HW,2013-02-21 15:59:00,
2013-02-21 10:04:00,16.9,11.2,30.26,NE,45,8.5,12.3,78,0.00,,,0.00,WUHU216HW,2013-02-21 16:04:00,
2013-02-21 10:09:00,16.9,11.2,30.26,North,0,9.8,12.3,78,0.00,,,0.00,WUHU216HW,2013-02-21 16:09:00,
2013-02-21 10:14:00,17.3,11.5,30.26,ENE,68,8.5,11.2,78,0.00,,,0.00,WUHU216HW,2013-02-21 16:14:00,
2013-02-21 10:19:00,18.0,11.6,30.27,NE,45,7.6,9.8,76,0.00,,,0.00,WUHU216HW,2013-02-21 16:19:00,
2013-02-21 10:24:00,18.5,11.9,30.27,ENE,68,4.9,9.2,75,0.00,,,0.00,WUHU216HW,2013-02-21 16:24:00,
2013-02-21 10:29:00,18.4,12.0,30.27,NE,45,8.1,11.6,76,0.00,,,0.00,WUHU216HW,2013-02-21 16:29:00,
2013-02-21 10:34:00,19.3,12.5,30.27,ENE,68,6.9,11.6,75,0.00,,,0.00,WUHU216HW,2013-02-21 16:34:00,
2013-02-21 10:39:00,18.9,11.9,30.27,NE,45,12.1,12.1,74,0.00,,,0.00,WUHU216HW,2013-02-21 16:39:00,
2013-02-21 10:44:00,19.1,12.3,30.27,NE,45,5.6,12.1,75,0.00,,,0.00,WUHU216HW,2013-02-21 16:44:00,
2013-02-21 10:49:00,19.1,12.1,30.26,ENE,68,10.1,12.3,74,0.00,,,0.00,WUHU216HW,2013-02-21 16:49:00,
2013-02-21 10:54:00,19.4,12.4,30.26,ENE,68,9.4,12.3,74,0.00,,,0.00,WUHU216HW,2013-02-21 16:54:00,
2013-02-21 10:59:00,20.0,13.2,30.27,ENE,68,8.5,12.3,75,0.00,,,0.00,WUHU216HW,2013-02-21 16:59:00,
2013-02-21 11:04:00,20.3,13.3,30.26,ENE,68,5.8,9.8,74,0.00,,,0.00,WUHU216HW,2013-02-21 17:04:00,
2013-02-21 11:09:00,20.7,13.7,30.26,NNE,23,7.6,9.8,74,0.00,,,0.00,WUHU216HW,2013-02-21 17:09:00,
2013-02-21 11:14:00,20.5,13.8,30.26,ENE,68,5.6,9.8,75,0.00,,,0.00,WUHU216HW,2013-02-21 17:14:00,
2013-02-21 11:19:00,20.2,13.2,30.25,NNE,23,8.1,9.4,74,0.00,,,0.00,WUHU216HW,2013-02-21 17:19:00,
2013-02-21 11:24:00,19.6,13.1,30.25,NNE,23,8.9,9.8,76,0.00,,,0.00,WUHU216HW,2013-02-21 17:24:00,
2013-02-21 11:29:00,19.8,13.3,30.24,NE,45,9.6,10.7,76,0.00,,,0.00,WUHU216HW,2013-02-21 17:29:00,
2013-02-21 11:34:00,19.8,13.3,30.24,NNE,23,7.2,11.4,76,0.00,,,0.00,WUHU216HW,2013-02-21 17:34:00,
2013-02-21 11:39:00,19.4,13.6,30.24,NNE,23,10.5,11.4,78,0.00,,,0.00,WUHU216HW,2013-02-21 17:39:00,
2013-02-21 11:44:00,19.3,13.4,30.23,NNE,23,8.5,11.4,78,0.00,,,0.00,WUHU216HW,2013-02-21 17:44:00,
2013-02-21 11:49:00,19.3,13.8,30.23,NE,45,10.1,11.4,79,0.00,,,0.00,WUHU216HW,2013-02-21 17:49:00,
2013-02-21 11:54:00,19.3,13.8,30.22,North,0,11.9,14.3,79,0.00,,,0.00,WUHU216HW,2013-02-21 17:54:00,
2013-02-21 11:59:00,19.1,13.9,30.22,North,0,11.6,14.3,80,0.00,,,0.00,WUHU216HW,2013-02-21 17:59:00,
2013-02-21 12:04:00,19.4,14.2,30.20,North,0,11.4,12.8,80,0.00,,,0.00,WUHU216HW,2013-02-21 18:04:00,
2013-02-21 12:09:00,19.4,14.5,30.21,NNE,23,10.1,12.8,81,0.00,,,0.00,WUHU216HW,2013-02-21 18:09:00,
2013-02-21 12:14:00,19.8,14.6,30.21,North,0,7.6,12.8,80,0.00,,,0.00,WUHU216HW,2013-02-21 18:14:00,
2013-02-21 12:19:00,20.2,14.9,30.20,NNE,23,5.4,10.7,80,0.00,,,0.00,WUHU216HW,2013-02-21 18:19:00,
2013-02-21 12:24:00,20.7,14.9,30.20,NE,45,8.9,10.5,78,0.00,,,0.00,WUHU216HW,2013-02-21 18:24:00,
2013-02-21 12:29:00,20.5,15.3,30.20,NNE,23,8.1,11.2,80,0.00,,,0.00,WUHU216HW,2013-02-21 18:29:00,
2013-02-21 12:34:00,20.2,15.2,30.20,ENE,68,6.9,11.2,81,0.00,,,0.00,WUHU216HW,2013-02-21 18:34:00,
2013-02-21 12:39:00,20.5,15.3,30.20,NE,45,5.8,10.1,80,0.00,,,0.00,WUHU216HW,2013-02-21 18:39:00,
2013-02-21 12:44:00,20.7,15.5,30.19,NNE,23,6.3,8.7,80,0.00,,,0.00,WUHU216HW,2013-02-21 18:44:00,
2013-02-21 12:49:00,20.9,15.9,30.19,NNE,23,6.3,8.7,81,0.00,,,0.00,WUHU216HW,2013-02-21 18:49:00,
2013-02-21 12:54:00,21.1,16.1,30.19,NNE,23,7.4,9.4,81,0.00,,,0.00,WUHU216HW,2013-02-21 18:54:00,
2013-02-21 12:59:00,21.1,16.1,30.18,NNE,23,7.6,9.4,81,0.00,,,0.00,WUHU216HW,2013-02-21 18:59:00,
2013-02-21 13:04:00,20.9,16.2,30.18,NE,45,8.5,11.9,82,0.00,,,0.00,WUHU216HW,2013-02-21 19:04:00,
2013-02-21 13:09:00,20.9,16.2,30.18,NNE,23,8.5,11.9,82,0.00,,,0.00,WUHU216HW,2013-02-21 19:09:00,
2013-02-21 13:14:00,20.7,15.8,30.17,NNE,23,9.2,13.2,81,0.00,,,0.00,WUHU216HW,2013-02-21 19:14:00,
2013-02-21 13:19:00,20.7,15.8,30.16,NNE,23,9.2,13.2,81,0.00,,,0.00,WUHU216HW,2013-02-21 19:19:00,
2013-02-21 13:23:00,20.3,15.7,30.15,NNE,23,8.5,14.3,82,0.00,,,0.00,WUHU216HW,2013-02-21 19:23:00,
2013-02-21 13:28:00,21.1,16.1,30.15,NNE,23,9.6,14.3,81,0.00,,,0.00,WUHU216HW,2013-02-21 19:28:00,
2013-02-21 13:33:00,20.5,15.8,30.15,SSE,158,5.6,14.3,82,0.00,,,0.00,WUHU216HW,2013-02-21 19:33:00,
2013-02-21 13:38:00,20.7,16.0,30.14,NNW,338,7.8,14.3,82,0.00,,,0.00,WUHU216HW,2013-02-21 19:38:00,
2013-02-21 13:43:00,20.9,16.2,30.14,NNE,23,11.9,12.1,82,0.00,,,0.00,WUHU216HW,2013-02-21 19:43:00,
2013-02-21 13:48:00,20.9,16.5,30.14,NE,45,7.6,12.1,83,0.00,,,0.00,WUHU216HW,2013-02-21 19:48:00,
2013-02-21 13:53:00,21.2,16.8,30.14,NNE,23,7.8,12.1,83,0.00,,,0.00,WUHU216HW,2013-02-21 19:53:00,
2013-02-21 13:58:00,21.4,17.0,30.14,NNE,23,3.4,9.2,83,0.00,,,0.00,WUHU216HW,2013-02-21 19:58:00,
2013-02-21 14:04:00,21.8,17.1,30.14,North,0,1.6,9.4,82,0.00,,,0.00,WUHU216HW,2013-02-21 20:04:00,
2013-02-21 14:09:00,21.6,16.9,30.14,NNE,23,6.3,11.4,82,0.00,,,0.00,WUHU216HW,2013-02-21 20:09:00,
2013-02-21 14:13:00,21.8,17.4,30.15,NNE,23,7.6,11.4,83,0.00,,,0.00,WUHU216HW,2013-02-21 20:13:00,
2013-02-21 14:18:00,21.6,17.2,30.14,NNE,23,10.1,12.1,83,0.00,,,0.00,WUHU216HW,2013-02-21 20:18:00,
2013-02-21 14:23:00,21.2,17.1,30.14,North,0,7.2,12.1,84,0.00,,,0.00,WUHU216HW,2013-02-21 20:23:00,
2013-02-21 14:28:00,21.6,17.5,30.14,NE,45,6.0,11.6,84,0.00,,,0.00,WUHU216HW,2013-02-21 20:28:00,
2013-02-21 14:33:00,21.2,17.1,30.14,NE,45,8.5,11.4,84,0.00,,,0.00,WUHU216HW,2013-02-21 20:33:00,
2013-02-21 14:38:00,21.1,17.2,30.14,NNE,23,9.8,14.3,85,0.00,,,0.00,WUHU216HW,2013-02-21 20:38:00,
2013-02-21 14:43:00,21.2,17.4,30.14,NNE,23,11.4,14.3,85,0.00,,,0.00,WUHU216HW,2013-02-21 20:43:00,
2013-02-21 14:48:00,21.2,17.4,30.14,North,0,12.5,15.2,85,0.00,,,0.00,WUHU216HW,2013-02-21 20:48:00,
2013-02-21 14:53:00,21.4,17.6,30.14,NE,45,8.1,15.2,85,0.00,,,0.00,WUHU216HW,2013-02-21 20:53:00,
2013-02-21 14:58:00,21.6,17.7,30.14,NE,45,11.2,12.5,85,0.00,,,0.00,WUHU216HW,2013-02-21 20:58:00,
2013-02-21 15:03:00,21.4,17.6,30.14,North,0,6.5,11.2,85,0.00,,,0.00,WUHU216HW,2013-02-21 21:03:00,
2013-02-21 15:08:00,21.4,17.6,30.14,North,0,6.3,11.2,85,0.00,,,0.00,WUHU216HW,2013-02-21 21:08:00,
2013-02-21 15:13:00,21.4,17.6,30.14,NNE,23,7.6,11.9,85,0.00,,,0.00,WUHU216HW,2013-02-21 21:13:00,
2013-02-21 15:18:00,21.4,17.6,30.14,NNE,23,8.5,11.9,85,0.00,,,0.00,WUHU216HW,2013-02-21 21:18:00,
2013-02-21 15:23:00,21.4,17.8,30.14,NNE,23,12.1,14.1,86,0.00,,,0.00,WUHU216HW,2013-02-21 21:23:00,
2013-02-21 15:28:00,21.2,17.9,30.14,NE,45,12.8,14.1,87,0.00,,,0.00,WUHU216HW,2013-02-21 21:28:00,
2013-02-21 15:33:00,21.2,17.9,30.13,NNE,23,11.2,14.3,87,0.00,,,0.00,WUHU216HW,2013-02-21 21:33:00,
2013-02-21 15:38:00,21.2,17.9,30.13,NE,45,13.4,15.4,87,0.00,,,0.00,WUHU216HW,2013-02-21 21:38:00,
2013-02-21 15:43:00,21.2,17.9,30.12,NNE,23,13.0,15.9,87,0.00,,,0.00,WUHU216HW,2013-02-21 21:43:00,
2013-02-21 15:48:00,21.2,18.2,30.13,NE,45,11.0,15.9,88,0.00,,,0.00,WUHU216HW,2013-02-21 21:48:00,
2013-02-21 15:53:00,21.2,17.9,30.13,NNE,23,13.0,14.3,87,0.00,,,0.00,WUHU216HW,2013-02-21 21:53:00,
2013-02-21 15:58:00,21.2,18.2,30.13,NE,45,15.4,15.4,88,0.00,,,0.00,WUHU216HW,2013-02-21 21:58:00,
2013-02-21 16:03:00,21.2,18.2,30.12,NNE,23,13.9,15.4,88,0.00,,,0.00,WUHU216HW,2013-02-21 22:03:00,
2013-02-21 16:08:00,21.2,18.2,30.12,ENE,68,11.0,15.9,88,0.00,,,0.00,WUHU216HW,2013-02-21 22:08:00,
2013-02-21 16:13:00,21.2,18.5,30.12,NNE,23,10.3,15.9,89,0.00,,,0.00,WUHU216HW,2013-02-21 22:13:00,
2013-02-21 16:18:00,21.2,18.7,30.12,NNE,23,11.4,15.2,90,0.00,,,0.00,WUHU216HW,2013-02-21 22:18:00,
2013-02-21 16:23:00,21.4,18.6,30.12,NE,45,9.8,15.0,89,0.00,,,0.00,WUHU216HW,2013-02-21 22:23:00,
2013-02-21 16:28:00,21.4,18.9,30.12,NE,45,8.7,12.8,90,0.00,,,0.00,WUHU216HW,2013-02-21 22:28:00,
2013-02-21 16:33:00,21.4,18.9,30.12,North,0,10.5,12.8,90,0.00,,,0.00,WUHU216HW,2013-02-21 22:33:00,
2013-02-21 16:38:00,21.4,18.9,30.11,NE,45,11.2,13.6,90,0.00,,,0.00,WUHU216HW,2013-02-21 22:38:00,
2013-02-21 16:43:00,21.4,18.9,30.11,NE,45,13.0,14.3,90,0.00,,,0.00,WUHU216HW,2013-02-21 22:43:00,
2013-02-21 16:48:00,21.4,18.9,30.10,NNE,23,9.2,14.3,90,0.00,,,0.00,WUHU216HW,2013-02-21 22:48:00,
2013-02-21 16:53:00,21.4,18.9,30.10,NE,45,11.9,13.4,90,0.00,,,0.00,WUHU216HW,2013-02-21 22:53:00,
2013-02-21 16:58:00,21.6,19.4,30.10,ENE,68,12.1,13.4,91,0.00,,,0.00,WUHU216HW,2013-02-21 22:58:00,
2013-02-21 17:03:00,21.6,19.4,30.09,NNE,23,11.4,15.9,91,0.00,,,0.00,WUHU216HW,2013-02-21 23:03:00,
2013-02-21 17:08:00,21.8,19.5,30.09,North,0,10.1,15.9,91,0.00,,,0.00,WUHU216HW,2013-02-21 23:08:00,
2013-02-21 17:13:00,22.0,19.7,30.08,NNE,23,19.2,19.2,91,0.00,,,0.00,WUHU216HW,2013-02-21 23:13:00,
2013-02-21 17:18:00,22.0,20.0,30.08,NE,45,15.7,19.2,92,0.00,,,0.00,WUHU216HW,2013-02-21 23:18:00,
2013-02-21 17:23:00,22.0,20.0,30.07,NE,45,13.6,19.2,92,0.00,,,0.00,WUHU216HW,2013-02-21 23:23:00,
2013-02-21 17:28:00,22.0,20.0,30.07,NNE,23,16.8,17.7,92,0.00,,,0.00,WUHU216HW,2013-02-21 23:28:00,
2013-02-21 17:33:00,22.1,20.2,30.07,NNE,23,13.9,17.7,92,0.00,,,0.00,WUHU216HW,2013-02-21 23:33:00,
2013-02-21 17:38:00,22.3,20.4,30.07,NNE,23,13.4,17.2,92,0.00,,,0.00,WUHU216HW,2013-02-21 23:38:00,
2013-02-21 17:43:00,22.3,20.4,30.07,NNE,23,12.1,16.8,92,0.00,,,0.00,WUHU216HW,2013-02-21 23:43:00,
2013-02-21 17:48:00,22.3,20.1,30.06,NE,45,13.2,17.2,91,0.00,,,0.00,WUHU216HW,2013-02-21 23:48:00,
2013-02-21 17:53:00,22.5,20.5,30.06,North,0,11.9,17.9,92,0.00,,,0.00,WUHU216HW,2013-02-21 23:53:00,
2013-02-21 17:58:00,22.7,20.7,30.06,NE,45,15.4,17.9,92,0.00,,,0.00,WUHU216HW,2013-02-21 23:58:00,
2013-02-21 18:03:00,22.7,20.7,30.07,NE,45,12.1,17.9,92,0.00,,,0.00,WUHU216HW,2013-02-22 00:03:00,
2013-02-21 18:08:00,22.7,20.7,30.07,NNE,23,8.7,16.1,92,0.00,,,0.00,WUHU216HW,2013-02-22 00:08:00,
2013-02-21 18:13:00,22.9,20.9,30.06,NNE,23,9.4,16.3,92,0.00,,,0.00,WUHU216HW,2013-02-22 00:13:00,
2013-02-21 18:18:00,23.0,21.1,30.06,NE,45,12.5,19.0,92,0.00,,,0.00,WUHU216HW,2013-02-22 00:18:00,
2013-02-21 18:23:00,23.0,20.8,30.06,NE,45,10.5,19.0,91,0.00,,,0.00,WUHU216HW,2013-02-22 00:23:00,
2013-02-21 18:28:00,23.2,21.3,30.06,ENE,68,11.4,17.7,92,0.00,,,0.00,WUHU216HW,2013-02-22 00:28:00,
2013-02-21 18:33:00,23.4,21.4,30.06,NE,45,9.8,17.2,92,0.00,,,0.00,WUHU216HW,2013-02-22 00:33:00,
2013-02-21 18:38:00,23.4,21.4,30.05,ENE,68,13.4,17.2,92,0.00,,,0.00,WUHU216HW,2013-02-22 00:38:00,
2013-02-21 18:43:00,23.4,21.4,30.04,NE,45,9.8,15.7,92,0.00,,,0.00,WUHU216HW,2013-02-22 00:43:00,
2013-02-21 18:48:00,23.6,21.6,30.04,North,0,15.2,15.7,92,0.00,,,0.00,WUHU216HW,2013-02-22 00:48:00,
2013-02-21 18:53:00,23.8,21.8,30.04,NE,45,15.0,15.7,92,0.00,,,0.00,WUHU216HW,2013-02-22 00:53:00,
2013-02-21 18:58:00,23.9,22.0,30.04,ENE,68,12.8,15.2,92,0.00,,,0.00,WUHU216HW,2013-02-22 00:58:00,
2013-02-21 19:03:00,24.1,22.2,30.04,ENE,68,10.7,15.4,92,0.00,,,0.00,WUHU216HW,2013-02-22 01:03:00,
2013-02-21 19:08:00,24.1,22.2,30.05,NE,45,8.7,15.4,92,0.00,,,0.00,WUHU216HW,2013-02-22 01:08:00,
2013-02-21 19:13:00,24.5,22.5,30.04,ENE,68,11.2,15.7,92,0.00,,,0.00,WUHU216HW,2013-02-22 01:13:00,
2013-02-21 19:18:00,24.5,22.2,30.04,ENE,68,12.1,15.7,91,0.00,,,0.00,WUHU216HW,2013-02-22 01:18:00,
2013-02-21 19:23:00,24.7,22.4,30.04,ENE,68,9.8,14.1,91,0.00,,,0.00,WUHU216HW,2013-02-22 01:23:00,
2013-02-21 19:28:00,24.8,22.6,30.03,ENE,68,13.0,19.2,91,0.00,,,0.00,WUHU216HW,2013-02-22 01:28:00,
2013-02-21 19:33:00,24.8,22.3,30.03,ENE,68,10.7,20.6,90,0.00,,,0.00,WUHU216HW,2013-02-22 01:33:00,
2013-02-21 19:38:00,24.8,22.3,30.02,NE,45,14.3,20.6,90,0.00,,,0.00,WUHU216HW,2013-02-22 01:38:00,
2013-02-21 19:43:00,24.8,22.3,30.02,NE,45,10.7,20.6,90,0.00,,,0.00,WUHU216HW,2013-02-22 01:43:00,
2013-02-21 19:48:00,24.8,22.1,30.01,ENE,68,16.1,21.3,89,0.00,,,0.00,WUHU216HW,2013-02-22 01:48:00,
2013-02-21 19:53:00,24.7,21.6,30.00,ENE,68,19.0,21.3,88,0.00,,,0.00,WUHU216HW,2013-02-22 01:53:00,
2013-02-21 19:58:00,24.7,21.6,29.99,NE,45,18.3,23.7,88,0.00,,,0.00,WUHU216HW,2013-02-22 01:58:00,
2013-02-21 20:03:00,24.7,21.6,29.99,NE,45,15.7,23.7,88,0.00,,,0.00,WUHU216HW,2013-02-22 02:03:00,
2013-02-21 20:08:00,24.7,21.6,29.99,ENE,68,19.2,21.3,88,0.00,,,0.00,WUHU216HW,2013-02-22 02:08:00,
2013-02-21 20:13:00,24.7,21.6,29.99,NE,45,16.1,21.3,88,0.00,,,0.00,WUHU216HW,2013-02-22 02:13:00,
2013-02-21 20:18:00,24.7,21.6,29.98,NE,45,19.5,23.7,88,0.00,,,0.00,WUHU216HW,2013-02-22 02:18:00,
2013-02-21 20:23:00,24.7,21.6,29.98,ENE,68,11.6,25.7,88,0.00,,,0.00,WUHU216HW,2013-02-22 02:23:00,
2013-02-21 20:28:00,24.5,21.4,29.98,NE,45,13.9,25.7,88,0.00,,,0.00,WUHU216HW,2013-02-22 02:28:00,
2013-02-21 20:33:00,24.5,21.4,29.98,NE,45,20.1,28.9,88,0.00,,,0.00,WUHU216HW,2013-02-22 02:33:00,
2013-02-21 20:38:00,24.7,21.6,29.98,ENE,68,18.1,28.9,88,0.00,,,0.00,WUHU216HW,2013-02-22 02:38:00,
2013-02-21 20:43:00,24.7,21.6,29.98,ENE,68,13.9,24.8,88,0.00,,,0.00,WUHU216HW,2013-02-22 02:43:00,
2013-02-21 20:48:00,24.7,21.6,29.98,ENE,68,13.0,18.1,88,0.00,,,0.00,WUHU216HW,2013-02-22 02:48:00,
2013-02-21 20:53:00,24.7,21.6,29.98,ENE,68,11.4,17.2,88,0.00,,,0.00,WUHU216HW,2013-02-22 02:53:00,
2013-02-21 20:58:00,24.7,21.6,29.99,ENE,68,12.1,19.2,88,0.00,,,0.00,WUHU216HW,2013-02-22 02:58:00,
2013-02-21 21:03:00,24.7,21.6,29.98,ENE,68,10.5,19.2,88,0.00,,,0.00,WUHU216HW,2013-02-22 03:03:00,
2013-02-21 21:08:00,24.7,21.6,29.99,ENE,68,8.5,16.3,88,0.00,,,0.00,WUHU216HW,2013-02-22 03:08:00,
2013-02-21 21:13:00,24.7,21.6,29.99,ENE,68,10.5,16.3,88,0.00,,,0.00,WUHU216HW,2013-02-22 03:13:00,
2013-02-21 21:18:00,24.7,21.6,29.97,East,90,11.0,16.6,88,0.00,,,0.00,WUHU216HW,2013-02-22 03:18:00,
2013-02-21 21:23:00,24.8,21.5,29.97,NE,45,16.3,18.1,87,0.00,,,0.00,WUHU216HW,2013-02-22 03:23:00,
2013-02-21 21:28:00,24.8,21.5,29.97,ENE,68,12.1,20.8,87,0.00,,,0.00,WUHU216HW,2013-02-22 03:28:00,
2013-02-21 21:33:00,24.8,21.8,29.96,NE,45,8.1,20.8,88,0.00,,,0.00,WUHU216HW,2013-02-22 03:33:00,
2013-02-21 21:38:00,24.8,21.5,29.96,East,90,10.3,15.7,87,0.00,,,0.00,WUHU216HW,2013-02-22 03:38:00,
2013-02-21 21:43:00,24.8,21.5,29.96,East,90,11.9,15.7,87,0.00,,,0.00,WUHU216HW,2013-02-22 03:43:00,
2013-02-21 21:48:00,24.8,21.5,29.95,ENE,68,17.2,17.2,87,0.00,,,0.00,WUHU216HW,2013-02-22 03:48:00,
2013-02-21 21:53:00,24.8,21.5,29.95,ENE,68,11.9,17.2,87,0.00,,,0.00,WUHU216HW,2013-02-22 03:53:00,
2013-02-21 21:58:00,24.8,21.2,29.95,ENE,68,9.6,19.9,86,0.00,,,0.00,WUHU216HW,2013-02-22 03:58:00,
2013-02-21 22:03:00,24.8,21.2,29.95,ESE,113,10.5,19.9,86,0.00,,,0.00,WUHU216HW,2013-02-22 04:03:00,
2013-02-21 22:08:00,25.0,21.4,29.95,East,90,14.3,16.3,86,0.00,,,0.00,WUHU216HW,2013-02-22 04:08:00,
2013-02-21 22:13:00,25.0,21.2,29.95,East,90,13.6,16.3,85,0.00,,,0.00,WUHU216HW,2013-02-22 04:13:00,
2013-02-21 22:18:00,25.0,20.9,29.96,ENE,68,14.1,20.4,84,0.00,,,0.00,WUHU216HW,2013-02-22 04:18:00,
2013-02-21 22:23:00,24.8,20.4,29.96,East,90,12.3,20.4,83,0.00,,,0.00,WUHU216HW,2013-02-22 04:23:00,
2013-02-21 22:28:00,24.8,20.7,29.95,NE,45,9.2,18.6,84,0.00,,,0.00,WUHU216HW,2013-02-22 04:28:00,
2013-02-21 22:33:00,24.8,20.7,29.95,NE,45,10.7,15.9,84,0.00,,,0.00,WUHU216HW,2013-02-22 04:33:00,
2013-02-21 22:38:00,24.8,20.7,29.95,East,90,15.4,16.8,84,0.00,,,0.00,WUHU216HW,2013-02-22 04:38:00,
2013-02-21 22:43:00,24.8,20.7,29.95,East,90,18.6,18.6,84,0.00,,,0.00,WUHU216HW,2013-02-22 04:43:00,
2013-02-21 22:47:00,24.7,20.5,29.95,NE,45,15.9,18.6,84,0.00,,,0.00,WUHU216HW,2013-02-22 04:47:00,
2013-02-21 22:52:00,24.7,20.5,29.95,ENE,68,11.2,18.6,84,0.00,,,0.00,WUHU216HW,2013-02-22 04:52:00,
2013-02-21 22:57:00,24.7,20.5,29.95,East,90,7.8,17.0,84,0.00,,,0.00,WUHU216HW,2013-02-22 04:57:00,
2013-02-21 23:00:00,24.7,20.5,29.95,ESE,113,15.0,16.8,84,0.00,,,0.00,WUHU216HW,2013-02-22 05:00:00,
2013-02-21 23:05:00,24.7,20.5,29.94,ENE,68,15.0,20.8,84,0.00,,,0.00,WUHU216HW,2013-02-22 05:05:00,
2013-02-21 23:10:00,24.5,20.6,29.95,ENE,68,11.4,20.8,85,0.00,,,0.00,WUHU216HW,2013-02-22 05:10:00,
2013-02-21 23:15:00,24.5,20.9,29.94,East,90,11.4,20.8,86,0.00,,,0.00,WUHU216HW,2013-02-22 05:15:00,
2013-02-21 23:20:00,24.3,21.0,29.94,NE,45,13.9,17.2,87,0.00,,,0.00,WUHU216HW,2013-02-22 05:20:00,
2013-02-21 23:25:00,24.1,21.1,29.94,ENE,68,9.8,17.7,88,0.00,,,0.00,WUHU216HW,2013-02-22 05:25:00,
2013-02-21 23:30:00,24.1,21.1,29.94,NNE,23,8.5,17.7,88,0.00,,,0.00,WUHU216HW,2013-02-22 05:30:00,
2013-02-21 23:35:00,23.9,20.9,29.94,ENE,68,6.9,13.2,88,0.00,,,0.00,WUHU216HW,2013-02-22 05:35:00,
2013-02-21 23:40:00,23.8,20.7,29.93,ENE,68,17.7,17.7,88,0.00,,,0.00,WUHU216HW,2013-02-22 05:40:00,
2013-02-21 23:45:00,23.8,21.0,29.93,ENE,68,10.5,17.7,89,0.00,,,0.00,WUHU216HW,2013-02-22 05:45:00,
2013-02-21 23:50:00,23.8,21.0,29.93,ENE,68,11.6,17.7,89,0.00,,,0.00,WUHU216HW,2013-02-22 05:50:00,
2013-02-21 23:55:00,23.8,21.0,29.93,ENE,68,11.4,16.6,89,0.00,,,0.00,WUHU216HW,2013-02-22 05:55:00,